Weather History for KEKN - January, 2013

Change the Weather History Date:

Tuesday, January 22, 2013

  Actual Average Record
Temperature  
Mean Temperature 11 °F 29 °F  
Max Temperature 16 °F 39 °F 73 °F (1906)
Min Temperature 5 °F 19 °F -23 °F (1984)
Degree Days  
Heating Degree Days 54 36  
Month to date heating degree days 673 792  
Since 1 July heating degree days 2935 3083  
Cooling Degree Days 0 0  
Month to date cooling degree days 0 0  
Year to date cooling degree days 0 0  
Moisture  
Dew Point -5 °F    
Average Humidity 51    
Maximum Humidity 66    
Minimum Humidity 36    
Precipitation  
Precipitation 0.00 in 0.10 in 1.43 in (1906)
Month to date precipitation 1.99 2.29  
Year to date precipitation 1.99 2.29  
Snow  
Snow 0.00 in - - ()
Month to date snowfall 0.9  
Since 1 September snowfall 28.4  
Snow Depth 0.00 in    
Sea Level Pressure  
Sea Level Pressure 30.22 in    
Wind  
Wind Speed 11 mph (WNW)    
Max Wind Speed 26 mph    
Max Gust Speed 36 mph    
Visibility 10 miles    
Events      
T = Trace of Precipitation, MM = Missing Value Source: NWS Daily Summary

Daily Weather History Graph

Daily Weather History Graph

Search for Another Location

Airport or City:

Trip Planner

Search our weather history database for the weather conditions in past years. The results will help you decide how hot, cold, wet, or windy it might be!

Date:

Astronomy

Jan. 22, 2013 Rise Set
Actual Time 7:32 AM EST 5:29 PM EST
Civil Twilight 7:04 AM EST 5:58 PM EST
Nautical Twilight 6:31 AM EST 6:30 PM EST
Astronomical Twilight 6:00 AM EST 7:02 PM EST
Moon 1:51 PM EST (1/22) 3:52 AM EST (1/22)
Length of Visible Light 10h 54m
Length of Day
9h 56m
Waxing Gibbous, 82% of the Moon is Illuminated
Jan 22
Waxing Gibbous
Jan 26
Full
Feb 3
Last Quarter
Feb 10
New
Feb 17
First Quarter

Hourly Weather History & Observations

Time (EST) Temp. Windchill Dew Point Humidity Pressure Visibility Wind Dir Wind Speed Gust Speed Precip Events Conditions
12:51 AM 12.9 °F -5.3 °F 1.0 °F 59% 30.08 in 10.0 mi West 20.7 mph 32.2 mph N/A   Overcast
1:51 AM 10.4 °F -8.2 °F -2.2 °F 57% 30.01 in 10.0 mi West 19.6 mph 31.1 mph N/A   Partly Cloudy
2:51 AM 10.0 °F -7.6 °F -5.1 °F 51% 30.13 in 10.0 mi West 17.3 mph 25.3 mph N/A   Clear
3:51 AM 9.0 °F -5.9 °F -2.9 °F 59% 30.14 in 10.0 mi WNW 11.5 mph 25.3 mph N/A   Partly Cloudy
4:51 AM 7.0 °F -12.6 °F -5.1 °F 58% 30.17 in 10.0 mi West 19.6 mph 26.5 mph N/A   Mostly Cloudy
5:51 AM 6.1 °F -10.2 °F -6.0 °F 58% 30.19 in 10.0 mi West 12.7 mph 20.7 mph N/A   Clear
6:26 AM 6.8 °F -4.8 °F -5.8 °F 56% 30.09 in 10.0 mi WNW 6.9 mph 18.4 mph N/A   Mostly Cloudy
6:51 AM 5.0 °F -11.6 °F -6.0 °F 61% 30.22 in 10.0 mi WNW 12.7 mph - N/A   Scattered Clouds
7:51 AM 5.0 °F -13.6 °F -7.1 °F 58% 30.25 in 10.0 mi NW 16.1 mph 23.0 mph N/A   Clear
8:51 AM 5.0 °F -10.8 °F -6.0 °F 61% 30.27 in 10.0 mi NW 11.5 mph 19.6 mph N/A   Overcast
9:11 AM 5.0 °F -10.0 °F -5.8 °F 61% 30.15 in 9.0 mi WNW 10.4 mph - N/A   Overcast
9:29 AM 5.0 °F -13.0 °F -5.8 °F 61% 30.16 in 10.0 mi WNW 15.0 mph - N/A   Mostly Cloudy
9:48 AM 6.8 °F -9.3 °F -5.8 °F 56% 30.16 in 10.0 mi WNW 12.7 mph - N/A   Mostly Cloudy
9:51 AM 7.0 °F -9.1 °F -6.0 °F 55% 30.29 in 10.0 mi WNW 12.7 mph - N/A   Mostly Cloudy
10:12 AM 8.6 °F -4.7 °F -5.8 °F 52% 30.16 in 10.0 mi West 9.2 mph - N/A   Scattered Clouds
10:51 AM 9.0 °F -4.2 °F -7.1 °F 48% 30.29 in 10.0 mi West 9.2 mph - N/A   Clear
11:51 AM 12.0 °F -4.0 °F -8.0 °F 41% 30.27 in 10.0 mi WNW 15.0 mph 25.3 mph N/A   Clear
12:51 PM 14.0 °F -1.4 °F -7.1 °F 39% 30.25 in 10.0 mi WNW 15.0 mph 20.7 mph N/A   Clear
1:51 PM 16.0 °F 1.7 °F -7.1 °F 36% 30.23 in 10.0 mi West 13.8 mph 19.6 mph N/A   Partly Cloudy
2:51 PM 16.0 °F 3.6 °F -7.1 °F 36% 30.23 in 10.0 mi West 10.4 mph 23.0 mph N/A   Clear
3:51 PM 15.1 °F -0.1 °F -7.1 °F 37% 30.24 in 10.0 mi West 15.0 mph 24.2 mph N/A   Partly Cloudy
4:51 PM 14.0 °F 2.9 °F -6.0 °F 41% 30.26 in 10.0 mi WNW 8.1 mph - N/A   Clear
5:51 PM 12.0 °F 0.5 °F -6.0 °F 44% 30.28 in 10.0 mi West 8.1 mph - N/A   Clear
6:51 PM 10.9 °F 4.7 °F -6.0 °F 47% 30.30 in 10.0 mi Variable 3.5 mph - N/A   Clear
7:51 PM 10.0 °F 1.8 °F -5.1 °F 51% 30.31 in 10.0 mi West 4.6 mph - N/A   Clear
8:51 PM 10.0 °F - -5.1 °F 51% 30.32 in 10.0 mi Calm Calm - N/A   Clear
9:51 PM 10.0 °F 3.6 °F -5.1 °F 51% 30.32 in 10.0 mi Variable 3.5 mph - N/A   Clear
10:51 PM 9.0 °F 2.4 °F -4.0 °F 56% 30.32 in 10.0 mi WNW 3.5 mph - N/A   Clear
11:51 PM 9.0 °F 0.6 °F -4.0 °F 56% 30.31 in 10.0 mi West 4.6 mph - N/A   Clear